sat.trackr.live / text

‹ back to catalog

AETHER-11

NORAD 67382 · 2026-004V

PAYLOAD ACTIVE UNKNOWN

§ Identity

Operator
Country
CA
Launch date
2026-01-11
Launch site
AFWTR
Launch vehicle
Mass (kg)
RCS (m²)

External: N2YO · Heavens-Above · Gunter

§ Orbital elements

Epoch: 2026-05-24T22:50:09.453120Z

Period
96.76 min
Inclination
97.8032°
Eccentricity
0.0004380
Mean motion
14.88233864 rev/d
Perigee alt
600.4 km
Apogee alt
606.5 km
Semi-major
6,981.6 km
B*
7.1780e-5
RAAN
144.0102°
Arg perigee
174.6430°
Mean anomaly
185.4835°
Rev number
1,983

§ Raw data

AETHER-111 67382U 26004V   26144.95149830  .00000608  00000+0  71780-4 0  99942 67382  97.8032 144.0102 0004380 174.6430 185.4835 14.88233864 19831

JSON: /api/v1/satellites/67382 · /tle

For live sub-satellite position, see the globe view (requires WebGL).

§ Visibility from observer

Set your observer location to see the next 7 days of passes ≥ 10°. The values pass through the URL so the page stays shareable.

No JS? Fill the form by hand. The geolocation button needs JavaScript.